Flag for Germany Weather past 2 weeks in Ratingen, North Rhine-Westphalia, Germany

Now
50 °F

Sprinkles. Broken clouds.


Feels Like: 43 °F
Forecast: 43 / 51 °F
Wind: 24 mph from West

Location: Duesseldorf

Current Time: Oct 21, 2014 at 7:31:06 PM

Latest Report: Oct 21, 2014 at 6:50 PM


Visibility: N/A

Pressure: 29.62 "Hg

Humidity: 82%

Dew point: 45 °F

Location of RatingenLocation

Historic Weather in Ratingen — Graph

°F

Ratingen temperature yesterday

Maximum temperature yesterday: 63 °F (at 1:50 PM)
Minimum temperature yesterday: 54 °F (at 4:50 AM)
Average temperature yesterday: 58 °F

Past Weeks' High & Low Weather Summary

 TemperatureHumidityPressure
High75 °F (Oct 19, 2:20 PM)100% (Oct 9, 2:50 AM)30.09 "Hg (Oct 9, 2:50 AM)
Low48 °F (Oct 11, 4:50 AM)49% (Oct 14, 2:20 PM)29.50 "Hg (Oct 7, 9:50 AM)
Average59 °F81%29.82 "Hg
* Reported Oct 6 6:20 PM — Oct 21 6:20 PM, Ratingen, Weather by CustomWeather, © 2014

Note: Actual official high and low records may vary slightly from our data, if they occured in-between our weather recording intervals... More about our weather records

Advertising

Ratingen weather history for previous 24 hours

 ConditionsComfort  
Time TempWeatherWind HumidityBarometerVisibility
6:20 PM
Oct 21
52 °FPartly sunny.17 mph82%29.59 "HgN/A
5:50 PM52 °FSprinkles. Broken clouds.20 mph82%29.56 "HgN/A
5:20 PM52 °FSprinkles. Broken clouds.13 mph88%29.56 "HgN/A
4:50 PM52 °FPartly sunny.20 mph88%29.53 "HgN/A
4:20 PM55 °FRain showers. Broken clouds.26 mph88%29.50 "HgN/A
3:50 PM57 °FPartly sunny.21 mph82%29.50 "HgN/A
3:20 PM55 °FSprinkles. Broken clouds.21 mph88%29.50 "HgN/A
2:50 PM55 °FPartly sunny.20 mph82%29.53 "HgN/A
2:20 PM55 °FLight rain. Partly sunny.16 mph82%29.56 "HgN/A
1:50 PM54 °FBroken clouds.17 mph94%29.59 "HgN/A
1:20 PM54 °FLight rain. Fog.18 mph88%29.62 "Hg3 mi
12:50 PM54 °FSprinkles. Broken clouds.21 mph88%29.65 "HgN/A
12:20 PM55 °FRain showers. Broken clouds.22 mph77%29.65 "Hg4 mi
11:50 AM57 °FPartly sunny.16 mph72%29.68 "HgN/A
11:20 AM55 °FPartly sunny.18 mph77%29.68 "HgN/A
10:50 AM55 °FLight rain. Partly sunny.20 mph77%29.68 "HgN/A
10:20 AM55 °FBroken clouds.14 mph77%29.71 "HgN/A
9:50 AM55 °FPartly sunny.15 mph77%29.74 "HgN/A
9:20 AM55 °FPartly sunny.15 mph77%29.77 "HgN/A
8:50 AM55 °FPassing clouds.14 mph77%29.77 "HgN/A
8:20 AM54 °FPassing clouds.13 mph88%29.77 "HgN/A
7:50 AM55 °FPassing clouds.10 mph82%29.77 "HgN/A
7:20 AM54 °FPassing clouds.12 mph88%29.80 "HgN/A
6:50 AM54 °FPassing clouds.10 mph88%29.83 "HgN/A
6:20 AM54 °FPassing clouds.10 mph88%29.83 "HgN/A
5:50 AM54 °FPassing clouds.9 mph88%29.83 "HgN/A
5:20 AM54 °FPassing clouds.9 mph88%29.86 "HgN/A
4:50 AM52 °FPassing clouds.12 mph94%29.86 "HgN/A
4:20 AM52 °FPassing clouds.12 mph94%29.89 "HgN/A
3:50 AM52 °FPassing clouds.12 mph94%29.89 "HgN/A
3:20 AM52 °FClear.12 mph94%29.89 "Hg10 mi
2:50 AM52 °FClear.12 mph94%29.92 "Hg10 mi
2:20 AM52 °FClear.10 mph94%29.92 "Hg10 mi
1:50 AM52 °FClear.10 mph94%29.92 "Hg10 mi
1:20 AM54 °FClear.10 mph88%29.92 "Hg10 mi
12:50 AM54 °FClear.10 mph88%29.92 "Hg10 mi
12:20 AM54 °FClear.9 mph88%29.92 "Hg10 mi
11:50 PM
Oct 20
54 °FClear.9 mph88%29.95 "Hg10 mi
11:20 PM55 °FClear.10 mph88%29.95 "Hg10 mi
10:50 PM55 °FScattered showers. Passing clouds.10 mph88%29.95 "HgN/A
10:20 PM57 °FScattered showers. Passing clouds.10 mph82%29.95 "HgN/A
9:50 PM57 °FScattered showers. Passing clouds.12 mph82%29.95 "HgN/A
9:20 PM55 °FPassing clouds.9 mph94%29.98 "HgN/A
8:50 PM57 °FPassing clouds.10 mph82%29.98 "HgN/A
8:20 PM57 °FSprinkles. Passing clouds.14 mph82%29.98 "HgN/A
7:50 PM59 °FScattered showers. Passing clouds.10 mph77%29.98 "HgN/A
7:20 PM57 °FScattered clouds.12 mph82%29.98 "HgN/A
Weather by CustomWeather, © 2014

See weather overviewHow to use our weather pages